| time (UTC) | temp F | wind direction | speed MPH | gust MPH | rain 1hr in | rain 24hr in | rain mn in | humidity % | barometer mb |
| 20260506051005 | 51 | 298 | 0.0 | 0.0 | 0.00 | 0.00 | 0.00 | 66 | 1015.2 |
| 20260506050801 | 51 | 298 | 0.0 | 0.0 | 0.00 | 0.00 | 0.00 | 67 | 1016.7 |
| 20260506050506 | 51 | 298 | 0.0 | 0.0 | 0.00 | 0.00 | 0.00 | 66 | 1015.1 |
| 20260506050258 | 52 | 298 | 0.0 | 0.0 | 0.00 | 0.00 | 0.00 | 66 | 1016.6 |
| 20260506045008 | 52 | 298 | 0.0 | 0.0 | 0.00 | 0.00 | 0.00 | 63 | 1015.1 |
| 20260506044756 | 52 | 298 | 0.0 | 0.0 | 0.00 | 0.00 | 0.00 | 64 | 1016.4 |
| 20260506044521 | 52 | 298 | 0.0 | 0.0 | 0.00 | 0.00 | 0.00 | 63 | 1015.1 |
| 20260506044253 | 53 | 298 | 0.0 | 0.0 | 0.00 | 0.00 | 0.00 | 63 | 1016.4 |
| 20260506044004 | 52 | 298 | 0.0 | 0.0 | 0.00 | 0.00 | 0.00 | 62 | 1015.1 |
| 20260506043752 | 53 | 298 | 0.0 | 0.0 | 0.00 | 0.00 | 0.00 | 62 | 1016.5 |
| 20260506043504 | 53 | 298 | 0.0 | 0.0 | 0.00 | 0.00 | 0.00 | 61 | 1015.2 |
| 20260506043250 | 53 | 298 | 0.0 | 0.0 | 0.00 | 0.00 | 0.00 | 61 | 1016.4 |
| 20260506043035 | 53 | 298 | 0.0 | 0.0 | 0.00 | 0.00 | 0.00 | 60 | 1015.2 |
| 20260506043008 | 53 | 298 | 0.0 | 0.0 | 0.00 | 0.00 | 0.00 | 60 | 1016.5 |
| 20260506042508 | 53 | 298 | 0.0 | 0.0 | 0.00 | 0.00 | 0.00 | 59 | 1015.2 |
| 20260506042246 | 54 | 298 | 0.0 | 0.0 | 0.00 | 0.00 | 0.00 | 58 | 1016.5 |
| 20260506042003 | 53 | 298 | 0.0 | 0.0 | 0.00 | 0.00 | 0.00 | 58 | 1015.0 |
| 20260506041746 | 54 | 298 | 0.0 | 0.0 | 0.00 | 0.00 | 0.00 | 57 | 1016.4 |
| 20260506041524 | 54 | 298 | 0.0 | 0.0 | 0.00 | 0.00 | 0.00 | 56 | 1015.0 |
| 20260506041245 | 54 | 298 | 0.0 | 0.0 | 0.00 | 0.00 | 0.00 | 58 | 1016.4 |
| 20260506041008 | 54 | 298 | 0.0 | 0.0 | 0.00 | 0.00 | 0.00 | 57 | 1015.0 |
| 20260506040744 | 54 | 298 | 0.0 | 0.0 | 0.00 | 0.00 | 0.00 | 57 | 1016.3 |
| 20260506040509 | 54 | 298 | 0.0 | 0.0 | 0.00 | 0.00 | 0.00 | 56 | 1014.9 |
| 20260506040243 | 55 | 298 | 0.0 | 0.0 | 0.00 | 0.00 | 0.00 | 56 | 1016.4 |
| 20260506040020 | 54 | 298 | 0.0 | 0.0 | 0.00 | 0.00 | 0.00 | 54 | 1014.9 |
| 20260506035959 | 55 | 298 | 0.0 | 0.0 | 0.00 | 0.00 | 0.00 | 54 | 1016.3 |
| 20260506035506 | 55 | 298 | 0.0 | 0.0 | 0.00 | 0.00 | 0.00 | 54 | 1014.9 |
| 20260506035231 | 55 | 298 | 0.0 | 0.0 | 0.00 | 0.00 | 0.00 | 54 | 1016.3 |
| 20260506035011 | 55 | 298 | 0.0 | 0.0 | 0.00 | 0.00 | 0.00 | 54 | 1014.9 |
| 20260506034725 | 56 | 298 | 0.0 | 0.0 | 0.00 | 0.00 | 0.00 | 54 | 1016.3 |
| 20260506034528 | 55 | 298 | 0.0 | 0.0 | 0.00 | 0.00 | 0.00 | 53 | 1014.9 |
| 20260506034220 | 56 | 298 | 0.0 | 0.0 | 0.00 | 0.00 | 0.00 | 53 | 1016.1 |
| 20260506034002 | 56 | 298 | 0.0 | 0.0 | 0.00 | 0.00 | 0.00 | 52 | 1014.7 |
| 20260506033934 | 57 | 298 | 0.0 | 0.0 | 0.00 | 0.00 | 0.00 | 53 | 1016.0 |
| 20260506033506 | 57 | 298 | 0.0 | 0.0 | 0.00 | 0.00 | 0.00 | 52 | 1014.6 |
| 20260506033207 | 58 | 298 | 0.0 | 0.0 | 0.00 | 0.00 | 0.00 | 52 | 1016.0 |
| 20260506033018 | 57 | 298 | 0.0 | 0.0 | 0.00 | 0.00 | 0.00 | 51 | 1014.4 |
| 20260506032701 | 58 | 298 | 0.0 | 0.0 | 0.00 | 0.00 | 0.00 | 51 | 1016.0 |
| 20260506032504 | 58 | 298 | 0.0 | 0.0 | 0.00 | 0.00 | 0.00 | 51 | 1014.4 |
| 20260506032155 | 59 | 298 | 0.0 | 0.0 | 0.00 | 0.00 | 0.00 | 51 | 1015.9 |
| 20260506032009 | 59 | 298 | 0.0 | 0.0 | 0.00 | 0.00 | 0.00 | 49 | 1014.3 |
| 20260506031916 | 60 | 298 | 0.0 | 0.0 | 0.00 | 0.00 | 0.00 | 50 | 1016.0 |
| 20260506031520 | 59 | 298 | 0.0 | 0.0 | 0.00 | 0.00 | 0.00 | 49 | 1014.3 |
| 20260506031143 | 60 | 298 | 0.0 | 0.0 | 0.00 | 0.00 | 0.00 | 48 | 1015.9 |
| 20260506031009 | 60 | 298 | 0.0 | 0.0 | 0.00 | 0.00 | 0.00 | 47 | 1014.3 |
| 20260506030637 | 61 | 298 | 0.0 | 0.0 | 0.00 | 0.00 | 0.00 | 47 | 1016.0 |
| 20260506030505 | 61 | 298 | 0.0 | 0.0 | 0.00 | 0.00 | 0.00 | 47 | 1014.3 |
| 20260506030131 | 62 | 298 | 0.0 | 0.0 | 0.00 | 0.00 | 0.00 | 47 | 1016.0 |
| 20260506030028 | 61 | 298 | 0.0 | 0.0 | 0.00 | 0.00 | 0.00 | 46 | 1014.3 |
| 20260506025625 | 62 | 298 | 0.0 | 0.0 | 0.00 | 0.00 | 0.00 | 44 | 1015.9 |
| 20260506025508 | 62 | 298 | 0.0 | 0.0 | 0.00 | 0.00 | 0.00 | 43 | 1014.3 |
| 20260506025346 | 63 | 298 | 0.0 | 0.0 | 0.00 | 0.00 | 0.00 | 43 | 1015.9 |
| 20260506025003 | 63 | 298 | 0.0 | 0.0 | 0.00 | 0.00 | 0.00 | 43 | 1014.2 |
| 20260506024613 | 64 | 297 | 0.0 | 0.0 | 0.00 | 0.00 | 0.00 | 42 | 1015.9 |
| 20260506024537 | 64 | 297 | 0.0 | 1.0 | 0.00 | 0.00 | 0.00 | 41 | 1014.2 |
| 20260506024107 | 65 | 297 | 0.0 | 2.0 | 0.00 | 0.00 | 0.00 | 40 | 1015.8 |
| 20260506024012 | 64 | 297 | 0.0 | 2.0 | 0.00 | 0.00 | 0.00 | 39 | 1014.2 |
| 20260506023601 | 65 | 297 | 0.0 | 2.0 | 0.00 | 0.00 | 0.00 | 40 | 1015.8 |
| 20260506023513 | 65 | 297 | 0.0 | 3.0 | 0.00 | 0.00 | 0.00 | 39 | 1014.2 |
| 20260506023054 | 66 | 297 | 0.0 | 3.0 | 0.00 | 0.00 | 0.00 | 39 | 1015.8 |
| 20260506023018 | 66 | 297 | 0.0 | 3.0 | 0.00 | 0.00 | 0.00 | 38 | 1014.2 |
| 20260506022548 | 66 | 298 | 0.0 | 3.0 | 0.00 | 0.00 | 0.00 | 37 | 1015.7 |
| 20260506022511 | 66 | 298 | 0.0 | 3.0 | 0.00 | 0.00 | 0.00 | 38 | 1014.1 |
| 20260506022050 | 67 | 297 | 1.0 | 4.0 | 0.00 | 0.00 | 0.00 | 38 | 1015.8 |
| 20260506022007 | 66 | 297 | 0.0 | 4.0 | 0.00 | 0.00 | 0.00 | 38 | 1014.2 |
| 20260506021547 | 67 | 297 | 1.0 | 4.0 | 0.00 | 0.00 | 0.00 | 35 | 1015.8 |
| 20260506021518 | 66 | 297 | 1.0 | 4.0 | 0.00 | 0.00 | 0.00 | 35 | 1014.2 |
| 20260506021046 | 67 | 305 | 1.0 | 3.0 | 0.00 | 0.00 | 0.00 | 35 | 1015.8 |
| 20260506021005 | 67 | 311 | 0.0 | 3.0 | 0.00 | 0.00 | 0.00 | 35 | 1014.2 |
| 20260506020806 | 67 | 311 | 1.0 | 5.0 | 0.00 | 0.00 | 0.00 | 35 | 1015.9 |
| 20260506020504 | 67 | 311 | 0.0 | 5.0 | 0.00 | 0.00 | 0.00 | 35 | 1014.1 |
| 20260506020045 | 67 | 316 | 2.0 | 5.0 | 0.00 | 0.00 | 0.00 | 34 | 1015.8 |
| 20260506020024 | 67 | 316 | 0.0 | 5.0 | 0.00 | 0.00 | 0.00 | 34 | 1014.1 |
| 20260506015543 | 68 | 313 | 2.0 | 6.0 | 0.00 | 0.00 | 0.00 | 34 | 1015.8 |
| 20260506015508 | 67 | 311 | 1.0 | 6.0 | 0.00 | 0.00 | 0.00 | 33 | 1014.1 |
| 20260506015044 | 68 | 246 | 2.0 | 6.0 | 0.00 | 0.00 | 0.00 | 34 | 1015.8 |
| 20260506015009 | 67 | 246 | 2.0 | 6.0 | 0.00 | 0.00 | 0.00 | 33 | 1014.1 |
| 20260506014544 | 68 | 256 | 2.0 | 4.0 | 0.00 | 0.00 | 0.00 | 33 | 1015.8 |
| 20260506014525 | 68 | 272 | 1.0 | 4.0 | 0.00 | 0.00 | 0.00 | 33 | 1014.1 |
| 20260506014042 | 68 | 244 | 2.0 | 7.0 | 0.00 | 0.00 | 0.00 | 33 | 1015.7 |
| 20260506014012 | 68 | 242 | 2.0 | 7.0 | 0.00 | 0.00 | 0.00 | 33 | 1014.1 |
| 20260506013540 | 68 | 283 | 2.0 | 8.0 | 0.00 | 0.00 | 0.00 | 32 | 1015.8 |
| 20260506013506 | 68 | 263 | 3.0 | 8.0 | 0.00 | 0.00 | 0.00 | 32 | 1014.1 |
| 20260506013303 | 69 | 325 | 2.0 | 8.0 | 0.00 | 0.00 | 0.00 | 33 | 1015.7 |
| 20260506013025 | 68 | 328 | 2.0 | 8.0 | 0.00 | 0.00 | 0.00 | 32 | 1014.1 |
| 20260506012802 | 69 | 285 | 2.0 | 6.0 | 0.00 | 0.00 | 0.00 | 33 | 1015.7 |
| 20260506012510 | 68 | 285 | 1.0 | 6.0 | 0.00 | 0.00 | 0.00 | 32 | 1014.1 |
| 20260506012039 | 69 | 232 | 3.0 | 8.0 | 0.00 | 0.00 | 0.00 | 32 | 1015.8 |
| 20260506012007 | 68 | 232 | 2.0 | 8.0 | 0.00 | 0.00 | 0.00 | 32 | 1014.1 |
| 20260506011539 | 69 | 240 | 2.0 | 8.0 | 0.00 | 0.00 | 0.00 | 32 | 1015.7 |
| 20260506011522 | 68 | 301 | 2.0 | 8.0 | 0.00 | 0.00 | 0.00 | 32 | 1014.1 |
| 20260506011039 | 69 | 276 | 3.0 | 9.0 | 0.00 | 0.00 | 0.00 | 32 | 1015.7 |
| 20260506011013 | 68 | 236 | 2.0 | 9.0 | 0.00 | 0.00 | 0.00 | 31 | 1014.1 |
| 20260506010502 | 69 | 245 | 4.0 | 9.0 | 0.00 | 0.00 | 0.00 | 31 | 1014.1 |
| 20260506010006 | 69 | 243 | 1.0 | 8.0 | 0.00 | 0.00 | 0.00 | 31 | 1014.1 |
| 20260506005536 | 70 | 239 | 3.0 | 8.0 | 0.00 | 0.00 | 0.00 | 31 | 1015.7 |
| 20260506005504 | 69 | 279 | 1.0 | 8.0 | 0.00 | 0.00 | 0.00 | 30 | 1014.1 |
| 20260506005301 | 70 | 217 | 3.0 | 8.0 | 0.00 | 0.00 | 0.00 | 30 | 1015.8 |
| 20260506005005 | 70 | 298 | 3.0 | 8.0 | 0.00 | 0.00 | 0.00 | 29 | 1014.2 |
| 20260506004527 | 71 | 265 | 2.0 | 8.0 | 0.00 | 0.00 | 0.00 | 29 | 1015.8 |
| 20260506004506 | 70 | 265 | 1.0 | 8.0 | 0.00 | 0.00 | 0.00 | 29 | 1014.2 |
| 20260506004021 | 71 | 228 | 2.0 | 8.0 | 0.00 | 0.00 | 0.00 | 30 | 1015.7 |
| 20260506004003 | 70 | 271 | 2.0 | 8.0 | 0.00 | 0.00 | 0.00 | 29 | 1014.1 |
| 20260506003515 | 71 | 236 | 2.0 | 5.0 | 0.00 | 0.00 | 0.00 | 30 | 1015.8 |
| 20260506003503 | 70 | 236 | 2.0 | 5.0 | 0.00 | 0.00 | 0.00 | 29 | 1014.1 |
| 20260506003233 | 71 | 244 | 2.0 | 8.0 | 0.00 | 0.00 | 0.00 | 30 | 1015.8 |
| 20260506003009 | 71 | 244 | 1.0 | 8.0 | 0.00 | 0.00 | 0.00 | 29 | 1014.2 |
| 20260506002726 | 71 | 115 | 2.0 | 8.0 | 0.00 | 0.00 | 0.00 | 29 | 1015.8 |
| 20260506002502 | 70 | 115 | 1.0 | 8.0 | 0.00 | 0.00 | 0.00 | 29 | 1014.2 |
| 20260506002003 | 70 | 177 | 0.0 | 8.0 | 0.00 | 0.00 | 0.00 | 30 | 1014.2 |
| 20260506001957 | 70 | 176 | 2.0 | 8.0 | 0.00 | 0.00 | 0.00 | 30 | 1015.9 |
| 20260506001511 | 70 | 219 | 1.0 | 7.0 | 0.00 | 0.00 | 0.00 | 28 | 1014.2 |
| 20260506001451 | 70 | 316 | 1.0 | 7.0 | 0.00 | 0.00 | 0.00 | 29 | 1015.8 |
| 20260506001003 | 69 | 101 | 1.0 | 4.0 | 0.00 | 0.00 | 0.00 | 29 | 1014.2 |
| 20260506000945 | 70 | 101 | 1.0 | 4.0 | 0.00 | 0.00 | 0.00 | 30 | 1015.8 |
| 20260506000503 | 69 | 137 | 0.0 | 8.0 | 0.00 | 0.00 | 0.00 | 31 | 1014.3 |
| 20260506000439 | 69 | 137 | 2.0 | 8.0 | 0.00 | 0.00 | 0.00 | 29 | 1015.9 |
| 20260506000004 | 69 | 313 | 2.0 | 8.0 | 0.00 | 0.00 | 0.00 | 28 | 1014.4 |
| 20260505235932 | 69 | 313 | 2.0 | 8.0 | 0.00 | 0.00 | 0.00 | 29 | 1015.9 |
| 20260505235503 | 69 | 223 | 2.0 | 8.0 | 0.00 | 0.00 | 0.00 | 28 | 1014.4 |
| 20260505235426 | 69 | 223 | 3.0 | 8.0 | 0.00 | 0.00 | 0.00 | 28 | 1015.9 |
| 20260505235002 | 69 | 243 | 3.0 | 8.0 | 0.00 | 0.00 | 0.00 | 27 | 1014.4 |
| 20260505234920 | 69 | 227 | 2.0 | 8.0 | 0.00 | 0.00 | 0.00 | 28 | 1016.0 |
| 20260505234504 | 68 | 277 | 2.0 | 11.0 | 0.00 | 0.00 | 0.00 | 27 | 1014.4 |
| 20260505234414 | 69 | 271 | 4.0 | 11.0 | 0.00 | 0.00 | 0.00 | 28 | 1016.1 |
| 20260505234129 | 69 | 283 | 4.0 | 11.0 | 0.00 | 0.00 | 0.00 | 27 | 1016.1 |
| 20260505234004 | 68 | 227 | 3.0 | 11.0 | 0.00 | 0.00 | 0.00 | 26 | 1014.5 |
| 20260505233503 | 69 | 235 | 3.0 | 11.0 | 0.00 | 0.00 | 0.00 | 26 | 1014.6 |
| 20260505233407 | 69 | 243 | 2.0 | 8.0 | 0.00 | 0.00 | 0.00 | 27 | 1016.1 |
| 20260505233131 | 69 | 271 | 2.0 | 8.0 | 0.00 | 0.00 | 0.00 | 27 | 1016.3 |
| 20260505233003 | 69 | 109 | 2.0 | 8.0 | 0.00 | 0.00 | 0.00 | 26 | 1014.6 |
| 20260505232503 | 69 | 287 | 2.0 | 8.0 | 0.00 | 0.00 | 0.00 | 27 | 1014.7 |
| 20260505232407 | 69 | 115 | 2.0 | 8.0 | 0.00 | 0.00 | 0.00 | 27 | 1016.3 |
| 20260505232003 | 69 | 351 | 2.0 | 8.0 | 0.00 | 0.00 | 0.00 | 27 | 1014.8 |
| 20260505231907 | 69 | 279 | 2.0 | 8.0 | 0.00 | 0.00 | 0.00 | 27 | 1016.3 |
| 20260505231503 | 69 | 209 | 2.0 | 9.0 | 0.00 | 0.00 | 0.00 | 27 | 1014.7 |
| 20260505231406 | 69 | 247 | 2.0 | 9.0 | 0.00 | 0.00 | 0.00 | 27 | 1016.3 |
| 20260505231003 | 69 | 206 | 1.0 | 9.0 | 0.00 | 0.00 | 0.00 | 26 | 1014.7 |
| 20260505230907 | 69 | 306 | 2.0 | 9.0 | 0.00 | 0.00 | 0.00 | 26 | 1016.3 |
| 20260505230504 | 68 | 244 | 2.0 | 8.0 | 0.00 | 0.00 | 0.00 | 27 | 1014.8 |
| 20260505230408 | 69 | 207 | 2.0 | 7.0 | 0.00 | 0.00 | 0.00 | 28 | 1016.4 |
| 20260505230013 | 68 | 312 | 2.0 | 7.0 | 0.00 | 0.00 | 0.00 | 27 | 1014.8 |
| 20260505225907 | 69 | 296 | 1.0 | 7.0 | 0.00 | 0.00 | 0.00 | 27 | 1016.4 |
| 20260505225634 | 68 | 269 | 2.0 | 8.0 | 0.00 | 0.00 | 0.00 | 27 | 1016.4 |
| 20260505225504 | 68 | 99 | 0.0 | 8.0 | 0.00 | 0.00 | 0.00 | 27 | 1014.7 |
| 20260505225004 | 68 | 209 | 1.0 | 12.0 | 0.00 | 0.00 | 0.00 | 27 | 1014.7 |
| 20260505224907 | 69 | 306 | 4.0 | 12.0 | 0.00 | 0.00 | 0.00 | 28 | 1016.4 |
| 20260505224516 | 68 | 248 | 2.0 | 12.0 | 0.00 | 0.00 | 0.00 | 25 | 1014.8 |
| 20260505224401 | 68 | 217 | 4.0 | 12.0 | 0.00 | 0.00 | 0.00 | 26 | 1016.4 |
| 20260505224107 | 69 | 266 | 3.0 | 10.0 | 0.00 | 0.00 | 0.00 | 26 | 1016.5 |
| 20260505224002 | 68 | 298 | 4.0 | 12.0 | 0.00 | 0.00 | 0.00 | 26 | 1014.9 |
| 20260505223610 | 69 | 217 | 3.0 | 8.0 | 0.00 | 0.00 | 0.00 | 27 | 1016.5 |
| 20260505223502 | 68 | 227 | 1.0 | 8.0 | 0.00 | 0.00 | 0.00 | 27 | 1014.9 |
| 20260505223108 | 69 | 276 | 3.0 | 9.0 | 0.00 | 0.00 | 0.00 | 27 | 1016.6 |
| 20260505223003 | 68 | 131 | 1.0 | 9.0 | 0.00 | 0.00 | 0.00 | 27 | 1015.0 |
| 20260505222609 | 69 | 261 | 3.0 | 9.0 | 0.00 | 0.00 | 0.00 | 26 | 1016.6 |
| 20260505222502 | 68 | 313 | 2.0 | 9.0 | 0.00 | 0.00 | 0.00 | 27 | 1015.0 |
| 20260505222002 | 68 | 225 | 3.0 | 8.0 | 0.00 | 0.00 | 0.00 | 25 | 1015.0 |
| 20260505221847 | 69 | 279 | 2.0 | 8.0 | 0.00 | 0.00 | 0.00 | 25 | 1016.7 |
| 20260505221508 | 68 | 112 | 1.0 | 9.0 | 0.00 | 0.00 | 0.00 | 26 | 1015.0 |
| 20260505221348 | 69 | 316 | 3.0 | 9.0 | 0.00 | 0.00 | 0.00 | 26 | 1016.7 |
| 20260505221003 | 68 | 302 | 3.0 | 10.0 | 0.00 | 0.00 | 0.00 | 25 | 1015.0 |
| 20260505220847 | 69 | 269 | 3.0 | 10.0 | 0.00 | 0.00 | 0.00 | 26 | 1016.7 |
| 20260505220502 | 69 | 118 | 1.0 | 10.0 | 0.00 | 0.00 | 0.00 | 25 | 1015.1 |
| 20260505220347 | 69 | 148 | 3.0 | 10.0 | 0.00 | 0.00 | 0.00 | 25 | 1016.8 |
| 20260505220111 | 69 | 153 | 2.0 | 9.0 | 0.00 | 0.00 | 0.00 | 28 | 1016.7 |
| 20260505220006 | 69 | 331 | 2.0 | 9.0 | 0.00 | 0.00 | 0.00 | 27 | 1015.0 |
| 20260505215503 | 68 | 282 | 2.0 | 9.0 | 0.00 | 0.00 | 0.00 | 26 | 1015.1 |
| 20260505215347 | 69 | 217 | 3.0 | 9.0 | 0.00 | 0.00 | 0.00 | 28 | 1016.7 |
| 20260505215006 | 68 | 154 | 2.0 | 9.0 | 0.00 | 0.00 | 0.00 | 28 | 1015.2 |
| 20260505214846 | 69 | 306 | 3.0 | 9.0 | 0.00 | 0.00 | 0.00 | 29 | 1016.8 |
| 20260505214503 | 68 | 306 | 3.0 | 12.0 | 0.00 | 0.00 | 0.00 | 29 | 1015.2 |
| 20260505214347 | 69 | 259 | 4.0 | 12.0 | 0.00 | 0.00 | 0.00 | 30 | 1016.8 |
| 20260505214003 | 68 | 220 | 4.0 | 12.0 | 0.00 | 0.00 | 0.00 | 29 | 1015.2 |
| 20260505213847 | 69 | 232 | 3.0 | 12.0 | 0.00 | 0.00 | 0.00 | 30 | 1016.9 |
| 20260505213503 | 68 | 288 | 3.0 | 8.0 | 0.00 | 0.00 | 0.00 | 31 | 1015.3 |
| 20260505213347 | 68 | 244 | 2.0 | 7.0 | 0.00 | 0.00 | 0.00 | 32 | 1016.8 |
| 20260505213022 | 67 | 280 | 2.0 | 14.0 | 0.00 | 0.00 | 0.00 | 30 | 1015.3 |
| 20260505212847 | 68 | 284 | 4.0 | 14.0 | 0.00 | 0.00 | 0.00 | 30 | 1016.9 |
| 20260505212503 | 67 | 246 | 4.0 | 14.0 | 0.00 | 0.00 | 0.00 | 29 | 1015.4 |
| 20260505212345 | 68 | 273 | 5.0 | 14.0 | 0.00 | 0.00 | 0.00 | 29 | 1016.9 |
| 20260505212003 | 68 | 238 | 2.0 | 10.0 | 0.00 | 0.00 | 0.00 | 30 | 1015.4 |
| 20260505211845 | 68 | 312 | 4.0 | 10.0 | 0.00 | 0.00 | 0.00 | 30 | 1017.1 |
| 20260505211507 | 68 | 277 | 5.0 | 10.0 | 0.00 | 0.00 | 0.00 | 29 | 1015.5 |
| 20260505211345 | 69 | 238 | 3.0 | 10.0 | 0.00 | 0.00 | 0.00 | 28 | 1017.1 |
| 20260505211003 | 69 | 186 | 2.0 | 8.0 | 0.00 | 0.00 | 0.00 | 28 | 1015.3 |
| 20260505210844 | 70 | 292 | 2.0 | 8.0 | 0.00 | 0.00 | 0.00 | 29 | 1017.1 |
| 20260505210505 | 69 | 109 | 2.0 | 10.0 | 0.00 | 0.00 | 0.00 | 30 | 1015.5 |
| 20260505210341 | 70 | 67 | 2.0 | 10.0 | 0.00 | 0.00 | 0.00 | 29 | 1017.1 |
| 20260505210010 | 69 | 279 | 2.0 | 12.0 | 0.00 | 0.00 | 0.00 | 28 | 1015.5 |
| 20260505205840 | 69 | 56 | 3.0 | 12.0 | 0.00 | 0.00 | 0.00 | 28 | 1017.4 |
| 20260505205502 | 69 | 208 | 1.0 | 12.0 | 0.00 | 0.00 | 0.00 | 29 | 1015.6 |
| 20260505205341 | 69 | 282 | 3.0 | 12.0 | 0.00 | 0.00 | 0.00 | 28 | 1017.3 |
| 20260505205058 | 69 | 144 | 3.0 | 11.0 | 0.00 | 0.00 | 0.00 | 29 | 1017.2 |
| 20260505205004 | 69 | 259 | 2.0 | 11.0 | 0.00 | 0.00 | 0.00 | 30 | 1015.6 |
| 20260505204511 | 69 | 213 | 1.0 | 8.0 | 0.00 | 0.00 | 0.00 | 30 | 1015.7 |
| 20260505204341 | 69 | 215 | 2.0 | 8.0 | 0.00 | 0.00 | 0.00 | 30 | 1017.4 |
| 20260505204003 | 68 | 281 | 2.0 | 8.0 | 0.00 | 0.00 | 0.00 | 29 | 1015.7 |
| 20260505203841 | 69 | 222 | 3.0 | 8.0 | 0.00 | 0.00 | 0.00 | 30 | 1017.3 |
| 20260505203503 | 68 | 269 | 4.0 | 8.0 | 0.00 | 0.00 | 0.00 | 31 | 1015.7 |
| 20260505203339 | 69 | 241 | 3.0 | 7.0 | 0.00 | 0.00 | 0.00 | 33 | 1017.3 |
| 20260505203012 | 69 | 189 | 4.0 | 7.0 | 0.00 | 0.00 | 0.00 | 31 | 1015.7 |
| 20260505202838 | 69 | 260 | 2.0 | 9.0 | 0.00 | 0.00 | 0.00 | 32 | 1017.3 |
| 20260505202504 | 69 | 169 | 1.0 | 9.0 | 0.00 | 0.00 | 0.00 | 32 | 1015.7 |
| 20260505202339 | 69 | 139 | 3.0 | 12.0 | 0.00 | 0.00 | 0.00 | 35 | 1017.2 |
| 20260505202009 | 68 | 81 | 3.0 | 12.0 | 0.00 | 0.00 | 0.00 | 32 | 1015.5 |
| 20260505201837 | 69 | 314 | 4.0 | 12.0 | 0.00 | 0.00 | 0.00 | 33 | 1017.4 |
| 20260505201511 | 68 | 273 | 3.0 | 12.0 | 0.00 | 0.00 | 0.00 | 32 | 1015.6 |
| 20260505201335 | 69 | 200 | 3.0 | 12.0 | 0.00 | 0.00 | 0.00 | 32 | 1017.2 |
| 20260505201056 | 68 | 288 | 4.0 | 9.0 | 0.00 | 0.00 | 0.00 | 33 | 1017.2 |
| 20260505201003 | 68 | 244 | 4.0 | 12.0 | 0.00 | 0.00 | 0.00 | 33 | 1015.6 |
| 20260505200503 | 67 | 279 | 3.0 | 10.0 | 0.00 | 0.00 | 0.00 | 33 | 1015.6 |
| 20260505200335 | 68 | 286 | 4.0 | 10.0 | 0.00 | 0.00 | 0.00 | 33 | 1017.2 |
| 20260505200009 | 68 | 279 | 4.0 | 10.0 | 0.00 | 0.00 | 0.00 | 33 | 1015.7 |
| 20260505195835 | 68 | 259 | 2.0 | 10.0 | 0.00 | 0.00 | 0.00 | 32 | 1017.2 |
| 20260505195505 | 68 | 238 | 2.0 | 10.0 | 0.00 | 0.00 | 0.00 | 32 | 1015.7 |
| 20260505195332 | 69 | 192 | 2.0 | 9.0 | 0.00 | 0.00 | 0.00 | 32 | 1017.3 |
| 20260505195002 | 68 | 320 | 0.0 | 10.0 | 0.00 | 0.00 | 0.00 | 31 | 1015.7 |
| 20260505194833 | 68 | 292 | 3.0 | 10.0 | 0.00 | 0.00 | 0.00 | 33 | 1017.5 |
| 20260505194555 | 68 | 246 | 3.0 | 10.0 | 0.00 | 0.00 | 0.00 | 33 | 1017.2 |
| 20260505194512 | 67 | 286 | 4.0 | 10.0 | 0.00 | 0.00 | 0.00 | 32 | 1015.7 |
| 20260505194004 | 68 | 261 | 1.0 | 7.0 | 0.00 | 0.00 | 0.00 | 32 | 1015.7 |
| 20260505193825 | 68 | 221 | 2.0 | 7.0 | 0.00 | 0.00 | 0.00 | 32 | 1017.4 |
| 20260505193506 | 67 | 237 | 1.0 | 8.0 | 0.00 | 0.00 | 0.00 | 34 | 1015.8 |
| 20260505193317 | 67 | 136 | 3.0 | 12.0 | 0.00 | 0.00 | 0.00 | 35 | 1017.4 |
| 20260505193017 | 67 | 248 | 2.0 | 12.0 | 0.00 | 0.00 | 0.00 | 33 | 1015.8 |
| 20260505192812 | 67 | 206 | 3.0 | 12.0 | 0.00 | 0.00 | 0.00 | 33 | 1017.4 |
| 20260505192511 | 66 | 322 | 4.0 | 12.0 | 0.00 | 0.00 | 0.00 | 34 | 1015.8 |
| 20260505192306 | 67 | 230 | 4.0 | 11.0 | 0.00 | 0.00 | 0.00 | 36 | 1017.4 |
| 20260505192009 | 66 | 313 | 4.0 | 11.0 | 0.00 | 0.00 | 0.00 | 34 | 1015.8 |
| 20260505191800 | 67 | 246 | 3.0 | 11.0 | 0.00 | 0.00 | 0.00 | 34 | 1017.5 |
| 20260505191518 | 68 | 250 | 4.0 | 11.0 | 0.00 | 0.00 | 0.00 | 33 | 1016.0 |
| 20260505191254 | 69 | 279 | 2.0 | 8.0 | 0.00 | 0.00 | 0.00 | 34 | 1017.4 |
| 20260505191011 | 68 | 230 | 2.0 | 8.0 | 0.00 | 0.00 | 0.00 | 32 | 1015.8 |
| 20260505190748 | 69 | 252 | 1.0 | 7.0 | 0.00 | 0.00 | 0.00 | 33 | 1017.4 |
| 20260505190503 | 68 | 259 | 2.0 | 7.0 | 0.00 | 0.00 | 0.00 | 32 | 1016.0 |
| 20260505190241 | 68 | 118 | 1.0 | 7.0 | 0.00 | 0.00 | 0.00 | 36 | 1017.5 |
| 20260505190023 | 68 | 314 | 1.0 | 7.0 | 0.00 | 0.00 | 0.00 | 33 | 1015.9 |
| 20260505185736 | 68 | 330 | 1.0 | 7.0 | 0.00 | 0.00 | 0.00 | 35 | 1017.4 |
| 20260505185510 | 67 | 247 | 2.0 | 9.0 | 0.00 | 0.00 | 0.00 | 33 | 1015.8 |
| 20260505185230 | 68 | 192 | 1.0 | 9.0 | 0.00 | 0.00 | 0.00 | 38 | 1017.4 |
| 20260505185005 | 67 | 250 | 0.0 | 9.0 | 0.00 | 0.00 | 0.00 | 36 | 1015.8 |
| 20260505184724 | 67 | 279 | 2.0 | 9.0 | 0.00 | 0.00 | 0.00 | 34 | 1017.4 |
| 20260505184511 | 67 | 295 | 1.0 | 9.0 | 0.00 | 0.00 | 0.00 | 35 | 1016.0 |
| 20260505184218 | 67 | 309 | 2.0 | 9.0 | 0.00 | 0.00 | 0.00 | 36 | 1017.4 |
| 20260505184003 | 66 | 236 | 3.0 | 9.0 | 0.00 | 0.00 | 0.00 | 35 | 1015.9 |
| 20260505183712 | 66 | 106 | 2.0 | 9.0 | 0.00 | 0.00 | 0.00 | 38 | 1017.3 |
| 20260505183503 | 65 | 111 | 2.0 | 8.0 | 0.00 | 0.00 | 0.00 | 36 | 1016.0 |
| 20260505183206 | 65 | 91 | 1.0 | 8.0 | 0.00 | 0.00 | 0.00 | 37 | 1017.3 |
| 20260505183021 | 64 | 259 | 1.0 | 8.0 | 0.00 | 0.00 | 0.00 | 41 | 1016.0 |
| 20260505182701 | 64 | 246 | 2.0 | 7.0 | 0.00 | 0.00 | 0.00 | 39 | 1017.3 |
| 20260505182507 | 64 | 246 | 2.0 | 8.0 | 0.00 | 0.00 | 0.00 | 37 | 1015.9 |
| 20260505182154 | 64 | 261 | 3.0 | 8.0 | 0.00 | 0.00 | 0.00 | 39 | 1017.2 |
| 20260505182007 | 63 | 302 | 1.0 | 10.0 | 0.00 | 0.00 | 0.00 | 39 | 1015.9 |
| 20260505181648 | 63 | 312 | 4.0 | 10.0 | 0.00 | 0.00 | 0.00 | 38 | 1017.3 |
| 20260505181520 | 63 | 249 | 3.0 | 10.0 | 0.00 | 0.00 | 0.00 | 38 | 1016.0 |
| 20260505181142 | 63 | 249 | 3.0 | 10.0 | 0.00 | 0.00 | 0.00 | 38 | 1017.3 |
| 20260505181002 | 63 | 279 | 3.0 | 10.0 | 0.00 | 0.00 | 0.00 | 38 | 1016.0 |
| 20260505180636 | 63 | 275 | 3.0 | 10.0 | 0.00 | 0.00 | 0.00 | 40 | 1017.5 |
| 20260505180508 | 63 | 313 | 2.0 | 10.0 | 0.00 | 0.00 | 0.00 | 40 | 1016.0 |
| 20260505180131 | 63 | 287 | 3.0 | 10.0 | 0.00 | 0.00 | 0.00 | 41 | 1017.6 |
| 20260505180024 | 62 | 298 | 3.0 | 10.0 | 0.00 | 0.00 | 0.00 | 39 | 1016.1 |
| 20260505175510 | 61 | 350 | 3.0 | 9.0 | 0.00 | 0.00 | 0.00 | 41 | 1016.0 |
| 20260505175118 | 62 | 242 | 4.0 | 9.0 | 0.00 | 0.00 | 0.00 | 42 | 1017.7 |
| 20260505175005 | 61 | 298 | 4.0 | 9.0 | 0.00 | 0.00 | 0.00 | 42 | 1016.0 |
| 20260505174612 | 62 | 307 | 3.0 | 8.0 | 0.00 | 0.00 | 0.00 | 42 | 1017.7 |
| 20260505174523 | 61 | 244 | 3.0 | 8.0 | 0.00 | 0.00 | 0.00 | 43 | 1016.0 |
| 20260505174325 | 61 | 299 | 3.0 | 6.0 | 0.00 | 0.00 | 0.00 | 45 | 1017.6 |
| 20260505174008 | 60 | 263 | 1.0 | 6.0 | 0.00 | 0.00 | 0.00 | 45 | 1016.0 |
| 20260505173600 | 61 | 320 | 3.0 | 9.0 | 0.00 | 0.00 | 0.00 | 43 | 1017.6 |
| 20260505173507 | 61 | 319 | 3.0 | 9.0 | 0.00 | 0.00 | 0.00 | 43 | 1016.1 |
| 20260505173054 | 62 | 239 | 3.0 | 9.0 | 0.00 | 0.00 | 0.00 | 44 | 1017.6 |
| 20260505173010 | 61 | 222 | 4.0 | 9.0 | 0.00 | 0.00 | 0.00 | 43 | 1016.0 |
| 20260505172548 | 62 | 277 | 2.0 | 8.0 | 0.00 | 0.00 | 0.00 | 44 | 1017.5 |
| 20260505172504 | 61 | 271 | 2.0 | 8.0 | 0.00 | 0.00 | 0.00 | 44 | 1016.0 |
| 20260505172306 | 62 | 305 | 2.0 | 8.0 | 0.00 | 0.00 | 0.00 | 45 | 1017.5 |
| 20260505172008 | 61 | 305 | 2.0 | 8.0 | 0.00 | 0.00 | 0.00 | 44 | 1015.9 |
| 20260505171536 | 62 | 285 | 1.0 | 8.0 | 0.00 | 0.00 | 0.00 | 46 | 1017.3 |
| 20260505171516 | 62 | 285 | 1.0 | 4.0 | 0.00 | 0.00 | 0.00 | 45 | 1015.9 |
| 20260505171030 | 61 | 254 | 3.0 | 8.0 | 0.00 | 0.00 | 0.00 | 47 | 1017.4 |
| 20260505171007 | 61 | 255 | 1.0 | 8.0 | 0.00 | 0.00 | 0.00 | 46 | 1015.8 |
| 20260505170524 | 61 | 285 | 3.0 | 8.0 | 0.00 | 0.00 | 0.00 | 46 | 1017.4 |
| 20260505170504 | 60 | 285 | 3.0 | 8.0 | 0.00 | 0.00 | 0.00 | 45 | 1015.9 |
| 20260505170020 | 60 | 321 | 1.0 | 6.0 | 0.00 | 0.00 | 0.00 | 46 | 1015.8 |
| 20260505170018 | 61 | 317 | 2.0 | 8.0 | 0.00 | 0.00 | 0.00 | 46 | 1017.3 |
| 20260505165511 | 61 | 311 | 2.0 | 7.0 | 0.00 | 0.00 | 0.00 | 45 | 1017.4 |
| 20260505165505 | 60 | 312 | 2.0 | 7.0 | 0.00 | 0.00 | 0.00 | 45 | 1015.8 |
| 20260505165225 | 61 | 293 | 2.0 | 7.0 | 0.00 | 0.00 | 0.00 | 47 | 1017.4 |
| 20260505165010 | 60 | 293 | 1.0 | 7.0 | 0.00 | 0.00 | 0.00 | 46 | 1015.8 |
| 20260505164523 | 59 | 281 | 1.0 | 6.0 | 0.00 | 0.00 | 0.00 | 48 | 1015.8 |
| 20260505164500 | 60 | 281 | 2.0 | 6.0 | 0.00 | 0.00 | 0.00 | 48 | 1017.3 |
| 20260505164217 | 59 | 296 | 3.0 | 8.0 | 0.00 | 0.00 | 0.00 | 50 | 1017.3 |
| 20260505164003 | 59 | 296 | 1.0 | 8.0 | 0.00 | 0.00 | 0.00 | 49 | 1015.8 |
| 20260505163510 | 59 | 294 | 3.0 | 8.0 | 0.00 | 0.00 | 0.00 | 48 | 1015.8 |
| 20260505163448 | 59 | 294 | 3.0 | 8.0 | 0.00 | 0.00 | 0.00 | 48 | 1017.4 |
| 20260505163026 | 59 | 270 | 2.0 | 7.0 | 0.00 | 0.00 | 0.00 | 48 | 1015.7 |
| 20260505162943 | 59 | 275 | 3.0 | 7.0 | 0.00 | 0.00 | 0.00 | 48 | 1017.4 |
| 20260505162511 | 59 | 239 | 2.0 | 7.0 | 0.00 | 0.00 | 0.00 | 47 | 1015.7 |
| 20260505162436 | 59 | 298 | 3.0 | 7.0 | 0.00 | 0.00 | 0.00 | 47 | 1017.3 |
| 20260505162010 | 58 | 242 | 2.0 | 7.0 | 0.00 | 0.00 | 0.00 | 47 | 1015.8 |
| 20260505161930 | 59 | 241 | 3.0 | 7.0 | 0.00 | 0.00 | 0.00 | 48 | 1017.3 |
| 20260505161524 | 58 | 276 | 2.0 | 7.0 | 0.00 | 0.00 | 0.00 | 49 | 1015.7 |
| 20260505161424 | 58 | 300 | 3.0 | 7.0 | 0.00 | 0.00 | 0.00 | 49 | 1017.4 |
| 20260505161008 | 58 | 296 | 3.0 | 7.0 | 0.00 | 0.00 | 0.00 | 48 | 1015.7 |
| 20260505160918 | 59 | 294 | 2.0 | 7.0 | 0.00 | 0.00 | 0.00 | 48 | 1017.3 |
| 20260505160509 | 58 | 242 | 2.0 | 7.0 | 0.00 | 0.00 | 0.00 | 48 | 1015.7 |
| 20260505160412 | 59 | 256 | 1.0 | 3.0 | 0.00 | 0.00 | 0.00 | 49 | 1017.2 |
| 20260505153336 | 57 | 296 | 2.0 | 5.0 | 0.00 | 0.00 | 0.00 | 48 | 1017.2 |
| 20260505153004 | 56 | 303 | 1.0 | 5.0 | 0.00 | 0.00 | 0.00 | 48 | 1015.6 |
| 20260505152830 | 56 | 283 | 2.0 | 5.0 | 0.00 | 0.00 | 0.00 | 50 | 1017.1 |
| 20260505152503 | 56 | 311 | 2.0 | 5.0 | 0.00 | 0.00 | 0.00 | 50 | 1015.7 |
| 20260505152324 | 56 | 280 | 2.0 | 5.0 | 0.00 | 0.00 | 0.00 | 49 | 1017.1 |
| 20260505152006 | 55 | 318 | 1.0 | 5.0 | 0.00 | 0.00 | 0.00 | 51 | 1015.7 |
| 20260505151823 | 55 | 318 | 3.0 | 6.0 | 0.00 | 0.00 | 0.00 | 52 | 1017.1 |
| 20260505151511 | 55 | 303 | 2.0 | 6.0 | 0.00 | 0.00 | 0.00 | 52 | 1015.6 |
| 20260505151320 | 55 | 303 | 3.0 | 6.0 | 0.00 | 0.00 | 0.00 | 53 | 1016.9 |
| 20260505151004 | 54 | 297 | 3.0 | 6.0 | 0.00 | 0.00 | 0.00 | 54 | 1015.7 |
| 20260505150820 | 54 | 281 | 2.0 | 6.0 | 0.00 | 0.00 | 0.00 | 57 | 1017.1 |
| 20260505150503 | 52 | 275 | 1.0 | 5.0 | 0.00 | 0.00 | 0.00 | 59 | 1015.7 |
| 20260505150320 | 51 | 294 | 2.0 | 5.0 | 0.00 | 0.00 | 0.00 | 62 | 1016.9 |
| 20260505140535 | 40 | 298 | 0.0 | 0.0 | 0.00 | 0.00 | 0.00 | 89 | 1016.6 |
| 20260505140506 | 40 | 298 | 0.0 | 0.0 | 0.00 | 0.00 | 0.00 | 89 | 1015.2 |
| 20260505130310 | 39 | 295 | 0.0 | 0.0 | 0.00 | 0.00 | 0.00 | 86 | 1016.3 |
| 20260505125006 | 38 | 295 | 0.0 | 0.0 | 0.00 | 0.00 | 0.00 | 84 | 1014.7 |
| 20260505124810 | 39 | 295 | 0.0 | 0.0 | 0.00 | 0.00 | 0.00 | 84 | 1016.3 |
| 20260505124522 | 38 | 295 | 0.0 | 0.0 | 0.00 | 0.00 | 0.00 | 84 | 1014.8 |
| 20260505124309 | 39 | 295 | 0.0 | 0.0 | 0.00 | 0.00 | 0.00 | 84 | 1016.3 |
| 20260505124002 | 39 | 295 | 0.0 | 0.0 | 0.00 | 0.00 | 0.00 | 84 | 1014.7 |
| 20260505123806 | 39 | 295 | 0.0 | 0.0 | 0.00 | 0.00 | 0.00 | 85 | 1016.3 |
| 20260505123505 | 39 | 295 | 0.0 | 0.0 | 0.00 | 0.00 | 0.00 | 83 | 1014.7 |
| 20260505123306 | 39 | 295 | 0.0 | 0.0 | 0.00 | 0.00 | 0.00 | 84 | 1016.3 |
| 20260505123027 | 39 | 295 | 0.0 | 0.0 | 0.00 | 0.00 | 0.00 | 83 | 1014.7 |
| 20260505122804 | 39 | 295 | 0.0 | 0.0 | 0.00 | 0.00 | 0.00 | 84 | 1016.3 |
| 20260505122502 | 39 | 295 | 0.0 | 0.0 | 0.00 | 0.00 | 0.00 | 83 | 1014.7 |
| 20260505122305 | 39 | 295 | 0.0 | 0.0 | 0.00 | 0.00 | 0.00 | 83 | 1016.1 |
| 20260505122003 | 39 | 295 | 0.0 | 0.0 | 0.00 | 0.00 | 0.00 | 84 | 1014.7 |
| 20260505121804 | 39 | 295 | 0.0 | 0.0 | 0.00 | 0.00 | 0.00 | 84 | 1016.1 |
| 20260505121532 | 39 | 295 | 0.0 | 0.0 | 0.00 | 0.00 | 0.00 | 83 | 1014.7 |
| 20260505121302 | 39 | 295 | 0.0 | 0.0 | 0.00 | 0.00 | 0.00 | 83 | 1016.1 |
| 20260505121009 | 39 | 295 | 0.0 | 0.0 | 0.00 | 0.00 | 0.00 | 83 | 1014.6 |
| 20260505120800 | 39 | 295 | 0.0 | 0.0 | 0.00 | 0.00 | 0.00 | 83 | 1016.0 |
| 20260505120505 | 39 | 295 | 0.0 | 0.0 | 0.00 | 0.00 | 0.00 | 82 | 1014.6 |
| 20260505120300 | 39 | 295 | 0.0 | 0.0 | 0.00 | 0.00 | 0.00 | 83 | 1016.0 |
| 20260505120031 | 39 | 295 | 0.0 | 0.0 | 0.00 | 0.00 | 0.00 | 82 | 1014.6 |
| 20260505115800 | 40 | 295 | 0.0 | 0.0 | 0.00 | 0.00 | 0.00 | 82 | 1016.0 |
| 20260505115502 | 39 | 295 | 0.0 | 0.0 | 0.00 | 0.00 | 0.00 | 81 | 1014.7 |
| 20260505115258 | 40 | 295 | 0.0 | 0.0 | 0.00 | 0.00 | 0.00 | 82 | 1016.1 |
| 20260505115020 | 40 | 295 | 0.0 | 0.0 | 0.00 | 0.00 | 0.00 | 82 | 1016.0 |
| 20260505115003 | 39 | 295 | 0.0 | 0.0 | 0.00 | 0.00 | 0.00 | 82 | 1014.6 |
| 20260505114514 | 39 | 295 | 0.0 | 0.0 | 0.00 | 0.00 | 0.00 | 81 | 1014.6 |
| 20260505114257 | 40 | 295 | 0.0 | 0.0 | 0.00 | 0.00 | 0.00 | 82 | 1016.0 |
| 20260505114008 | 39 | 296 | 0.0 | 0.0 | 0.00 | 0.00 | 0.00 | 81 | 1014.6 |
| 20260505113756 | 40 | 296 | 0.0 | 0.0 | 0.00 | 0.00 | 0.00 | 81 | 1016.0 |
| 20260505113503 | 39 | 296 | 0.0 | 0.0 | 0.00 | 0.00 | 0.00 | 80 | 1014.5 |
| 20260505113008 | 40 | 296 | 0.0 | 0.0 | 0.00 | 0.00 | 0.00 | 81 | 1014.6 |
| 20260505112754 | 40 | 296 | 0.0 | 0.0 | 0.00 | 0.00 | 0.00 | 81 | 1015.9 |
| 20260505112516 | 40 | 296 | 0.0 | 0.0 | 0.00 | 0.00 | 0.00 | 80 | 1015.9 |
| 20260505112506 | 40 | 296 | 0.0 | 0.0 | 0.00 | 0.00 | 0.00 | 80 | 1014.6 |
| 20260505112009 | 40 | 296 | 0.0 | 0.0 | 0.00 | 0.00 | 0.00 | 80 | 1014.5 |
| 20260505111748 | 40 | 296 | 0.0 | 0.0 | 0.00 | 0.00 | 0.00 | 81 | 1015.9 |
| 20260505111522 | 40 | 296 | 0.0 | 0.0 | 0.00 | 0.00 | 0.00 | 80 | 1014.5 |
| 20260505111241 | 40 | 296 | 0.0 | 0.0 | 0.00 | 0.00 | 0.00 | 80 | 1015.9 |
| 20260505111004 | 40 | 296 | 0.0 | 0.0 | 0.00 | 0.00 | 0.00 | 79 | 1014.4 |
| 20260505110735 | 41 | 296 | 0.0 | 0.0 | 0.00 | 0.00 | 0.00 | 80 | 1015.9 |
| 20260505110506 | 40 | 296 | 0.0 | 0.0 | 0.00 | 0.00 | 0.00 | 79 | 1014.5 |
| 20260505110229 | 41 | 296 | 0.0 | 0.0 | 0.00 | 0.00 | 0.00 | 79 | 1015.9 |
| 20260505102140 | 42 | 297 | 0.0 | 0.0 | 0.00 | 0.00 | 0.00 | 78 | 1015.8 |
| 20260505102007 | 41 | 297 | 0.0 | 0.0 | 0.00 | 0.00 | 0.00 | 78 | 1014.4 |
| 20260505101633 | 42 | 297 | 0.0 | 0.0 | 0.00 | 0.00 | 0.00 | 78 | 1015.8 |
| 20260505101518 | 41 | 297 | 0.0 | 0.0 | 0.00 | 0.00 | 0.00 | 77 | 1014.4 |
| 20260505101126 | 42 | 297 | 0.0 | 0.0 | 0.00 | 0.00 | 0.00 | 77 | 1015.8 |
| 20260505101010 | 42 | 297 | 0.0 | 0.0 | 0.00 | 0.00 | 0.00 | 77 | 1014.4 |
| 20260505100622 | 42 | 297 | 0.0 | 0.0 | 0.00 | 0.00 | 0.00 | 77 | 1015.8 |
| 20260505100506 | 42 | 297 | 0.0 | 0.0 | 0.00 | 0.00 | 0.00 | 77 | 1014.4 |
| 20260505100115 | 42 | 297 | 0.0 | 0.0 | 0.00 | 0.00 | 0.00 | 77 | 1015.8 |
| 20260505100012 | 42 | 297 | 0.0 | 0.0 | 0.00 | 0.00 | 0.00 | 76 | 1014.3 |
| 20260505095608 | 42 | 297 | 0.0 | 0.0 | 0.00 | 0.00 | 0.00 | 77 | 1015.8 |
| 20260505095506 | 42 | 297 | 0.0 | 0.0 | 0.00 | 0.00 | 0.00 | 76 | 1014.3 |
| 20260505095103 | 42 | 297 | 0.0 | 0.0 | 0.00 | 0.00 | 0.00 | 76 | 1015.7 |
| 20260505095009 | 42 | 297 | 0.0 | 0.0 | 0.00 | 0.00 | 0.00 | 76 | 1014.3 |
| 20260505094557 | 43 | 297 | 0.0 | 0.0 | 0.00 | 0.00 | 0.00 | 76 | 1015.7 |
| 20260505094534 | 42 | 297 | 0.0 | 0.0 | 0.00 | 0.00 | 0.00 | 75 | 1014.3 |
| 20260505094311 | 43 | 297 | 0.0 | 0.0 | 0.00 | 0.00 | 0.00 | 76 | 1015.6 |
| 20260505094005 | 42 | 297 | 0.0 | 0.0 | 0.00 | 0.00 | 0.00 | 75 | 1014.2 |
| 20260505093545 | 43 | 297 | 0.0 | 0.0 | 0.00 | 0.00 | 0.00 | 76 | 1015.6 |
| 20260505093508 | 42 | 297 | 0.0 | 0.0 | 0.00 | 0.00 | 0.00 | 75 | 1014.2 |
| 20260505093304 | 43 | 297 | 0.0 | 0.0 | 0.00 | 0.00 | 0.00 | 76 | 1015.6 |
| 20260505093030 | 43 | 298 | 0.0 | 0.0 | 0.00 | 0.00 | 0.00 | 75 | 1014.3 |
| 20260505092752 | 43 | 298 | 0.0 | 0.0 | 0.00 | 0.00 | 0.00 | 75 | 1015.7 |
| 20260505092511 | 43 | 298 | 0.0 | 0.0 | 0.00 | 0.00 | 0.00 | 74 | 1014.3 |
| 20260505092027 | 43 | 298 | 0.0 | 1.0 | 0.00 | 0.00 | 0.00 | 74 | 1015.7 |
| 20260505092007 | 43 | 298 | 0.0 | 1.0 | 0.00 | 0.00 | 0.00 | 74 | 1014.3 |
| 20260505091753 | 44 | 298 | 0.0 | 1.0 | 0.00 | 0.00 | 0.00 | 74 | 1015.8 |
| 20260505091513 | 43 | 298 | 0.0 | 1.0 | 0.00 | 0.00 | 0.00 | 74 | 1014.3 |
| 20260505091015 | 44 | 298 | 0.0 | 1.0 | 0.00 | 0.00 | 0.00 | 74 | 1015.8 |
| 20260505091006 | 43 | 298 | 0.0 | 1.0 | 0.00 | 0.00 | 0.00 | 73 | 1014.2 |
| 20260505090509 | 44 | 298 | 0.0 | 1.0 | 0.00 | 0.00 | 0.00 | 73 | 1015.7 |
| 20260505090506 | 44 | 298 | 0.0 | 1.0 | 0.00 | 0.00 | 0.00 | 73 | 1014.2 |
| 20260505090022 | 44 | 298 | 0.0 | 0.0 | 0.00 | 0.00 | 0.00 | 72 | 1014.2 |
| 20260505090004 | 45 | 298 | 0.0 | 0.0 | 0.00 | 0.00 | 0.00 | 72 | 1015.7 |
| 20260505085509 | 44 | 298 | 0.0 | 0.0 | 0.00 | 0.00 | 0.00 | 71 | 1014.2 |
| 20260505085457 | 45 | 298 | 0.0 | 0.0 | 0.00 | 0.00 | 0.00 | 72 | 1015.7 |
| 20260505085007 | 45 | 298 | 0.0 | 0.0 | 0.00 | 0.00 | 0.00 | 71 | 1014.1 |
| 20260505084951 | 45 | 298 | 0.0 | 0.0 | 0.00 | 0.00 | 0.00 | 72 | 1015.6 |
| 20260505084518 | 45 | 298 | 0.0 | 0.0 | 0.00 | 0.00 | 0.00 | 70 | 1014.1 |
| 20260505084446 | 46 | 298 | 0.0 | 0.0 | 0.00 | 0.00 | 0.00 | 71 | 1015.6 |
| 20260505084010 | 45 | 298 | 0.0 | 0.0 | 0.00 | 0.00 | 0.00 | 71 | 1014.1 |
| 20260505083938 | 46 | 298 | 0.0 | 0.0 | 0.00 | 0.00 | 0.00 | 71 | 1015.6 |
| 20260505083507 | 45 | 298 | 0.0 | 0.0 | 0.00 | 0.00 | 0.00 | 70 | 1014.1 |
| 20260505083433 | 46 | 298 | 0.0 | 0.0 | 0.00 | 0.00 | 0.00 | 70 | 1015.6 |
| 20260505083027 | 46 | 298 | 0.0 | 0.0 | 0.00 | 0.00 | 0.00 | 69 | 1014.0 |
| 20260505082927 | 46 | 298 | 0.0 | 0.0 | 0.00 | 0.00 | 0.00 | 70 | 1015.6 |
| 20260505082637 | 46 | 298 | 0.0 | 0.0 | 0.00 | 0.00 | 0.00 | 69 | 1015.6 |
| 20260505082511 | 46 | 298 | 0.0 | 0.0 | 0.00 | 0.00 | 0.00 | 68 | 1014.1 |
| 20260505082145 | 46 | 298 | 0.0 | 0.0 | 0.00 | 0.00 | 0.00 | 68 | 1015.6 |
| 20260505082010 | 46 | 298 | 0.0 | 0.0 | 0.00 | 0.00 | 0.00 | 68 | 1014.1 |
| 20260505081530 | 46 | 298 | 0.0 | 0.0 | 0.00 | 0.00 | 0.00 | 68 | 1014.1 |
| 20260505081409 | 47 | 298 | 0.0 | 0.0 | 0.00 | 0.00 | 0.00 | 68 | 1015.6 |
| 20260505081012 | 46 | 298 | 0.0 | 0.0 | 0.00 | 0.00 | 0.00 | 67 | 1014.1 |
| 20260505080903 | 47 | 298 | 0.0 | 0.0 | 0.00 | 0.00 | 0.00 | 67 | 1015.7 |
| 20260505080510 | 47 | 298 | 0.0 | 0.0 | 0.00 | 0.00 | 0.00 | 66 | 1014.1 |
| 20260505080357 | 47 | 298 | 0.0 | 0.0 | 0.00 | 0.00 | 0.00 | 67 | 1015.6 |
| 20260505080029 | 47 | 298 | 0.0 | 0.0 | 0.00 | 0.00 | 0.00 | 67 | 1014.1 |
| 20260505075851 | 47 | 298 | 0.0 | 0.0 | 0.00 | 0.00 | 0.00 | 67 | 1015.6 |
| 20260505075511 | 47 | 298 | 0.0 | 0.0 | 0.00 | 0.00 | 0.00 | 66 | 1014.1 |
| 20260505075012 | 47 | 298 | 0.0 | 0.0 | 0.00 | 0.00 | 0.00 | 65 | 1014.1 |
| 20260505074839 | 48 | 298 | 0.0 | 0.0 | 0.00 | 0.00 | 0.00 | 65 | 1015.6 |
| 20260505074520 | 48 | 298 | 0.0 | 0.0 | 0.00 | 0.00 | 0.00 | 64 | 1014.0 |
| 20260505074333 | 48 | 298 | 0.0 | 0.0 | 0.00 | 0.00 | 0.00 | 65 | 1015.5 |
| 20260505074007 | 48 | 298 | 0.0 | 0.0 | 0.00 | 0.00 | 0.00 | 64 | 1014.0 |
| 20260505073827 | 49 | 298 | 0.0 | 0.0 | 0.00 | 0.00 | 0.00 | 65 | 1015.5 |
| 20260505073508 | 48 | 298 | 0.0 | 0.0 | 0.00 | 0.00 | 0.00 | 64 | 1013.9 |
| 20260505073322 | 49 | 298 | 0.0 | 0.0 | 0.00 | 0.00 | 0.00 | 64 | 1015.3 |
| 20260505073041 | 49 | 298 | 0.0 | 0.0 | 0.00 | 0.00 | 0.00 | 63 | 1015.3 |
| 20260505073026 | 49 | 298 | 0.0 | 0.0 | 0.00 | 0.00 | 0.00 | 64 | 1013.9 |
| 20260505072510 | 49 | 298 | 0.0 | 0.0 | 0.00 | 0.00 | 0.00 | 62 | 1013.8 |
| 20260505072309 | 49 | 298 | 0.0 | 0.0 | 0.00 | 0.00 | 0.00 | 63 | 1015.3 |
| 20260505072007 | 49 | 298 | 0.0 | 0.0 | 0.00 | 0.00 | 0.00 | 61 | 1013.9 |
| 20260505071803 | 50 | 298 | 0.0 | 0.0 | 0.00 | 0.00 | 0.00 | 62 | 1015.2 |
| 20260505071530 | 50 | 298 | 0.0 | 0.0 | 0.00 | 0.00 | 0.00 | 61 | 1013.8 |
| 20260505071257 | 50 | 298 | 0.0 | 0.0 | 0.00 | 0.00 | 0.00 | 62 | 1015.1 |
| 20260505071009 | 50 | 298 | 0.0 | 0.0 | 0.00 | 0.00 | 0.00 | 62 | 1013.8 |
| 20260505070751 | 51 | 298 | 0.0 | 0.0 | 0.00 | 0.00 | 0.00 | 62 | 1015.1 |
| 20260505070506 | 50 | 298 | 0.0 | 0.0 | 0.00 | 0.00 | 0.00 | 61 | 1013.8 |
| 20260505070245 | 51 | 298 | 0.0 | 0.0 | 0.00 | 0.00 | 0.00 | 61 | 1015.1 |
| 20260505070008 | 52 | 298 | 0.0 | 0.0 | 0.00 | 0.00 | 0.00 | 61 | 1015.2 |
| 20260505070004 | 51 | 298 | 0.0 | 0.0 | 0.00 | 0.00 | 0.00 | 60 | 1013.7 |
| 20260505065503 | 51 | 298 | 0.0 | 2.0 | 0.00 | 0.00 | 0.00 | 60 | 1013.7 |
| 20260505065244 | 52 | 298 | 0.0 | 2.0 | 0.00 | 0.00 | 0.00 | 60 | 1015.1 |
| 20260505065005 | 52 | 298 | 0.0 | 2.0 | 0.00 | 0.00 | 0.00 | 58 | 1013.7 |
| 20260505064744 | 53 | 298 | 0.0 | 2.0 | 0.00 | 0.00 | 0.00 | 59 | 1015.1 |
| 20260505064508 | 53 | 298 | 0.0 | 1.0 | 0.00 | 0.00 | 0.00 | 59 | 1013.7 |
| 20260505064244 | 54 | 298 | 0.0 | 1.0 | 0.00 | 0.00 | 0.00 | 58 | 1015.1 |
| 20260505064002 | 54 | 298 | 0.0 | 1.0 | 0.00 | 0.00 | 0.00 | 58 | 1013.7 |
| 20260505063745 | 54 | 298 | 0.0 | 1.0 | 0.00 | 0.00 | 0.00 | 57 | 1015.1 |
| 20260505063503 | 54 | 298 | 0.0 | 0.0 | 0.00 | 0.00 | 0.00 | 56 | 1013.7 |
| 20260505063244 | 55 | 298 | 0.0 | 1.0 | 0.00 | 0.00 | 0.00 | 55 | 1015.1 |
| 20260505063004 | 55 | 298 | 0.0 | 1.0 | 0.00 | 0.00 | 0.00 | 55 | 1013.7 |
| 20260505062744 | 56 | 298 | 0.0 | 2.0 | 0.00 | 0.00 | 0.00 | 55 | 1015.2 |
| 20260505062503 | 55 | 298 | 0.0 | 2.0 | 0.00 | 0.00 | 0.00 | 55 | 1013.7 |
| 20260505062244 | 56 | 298 | 0.0 | 2.0 | 0.00 | 0.00 | 0.00 | 56 | 1015.1 |
| 20260505062002 | 56 | 298 | 0.0 | 2.0 | 0.00 | 0.00 | 0.00 | 55 | 1013.6 |
| 20260505061744 | 56 | 298 | 0.0 | 2.0 | 0.00 | 0.00 | 0.00 | 54 | 1015.1 |
| 20260505061507 | 56 | 297 | 0.0 | 1.0 | 0.00 | 0.00 | 0.00 | 48 | 1013.6 |
| 20260505061240 | 56 | 298 | 0.0 | 2.0 | 0.00 | 0.00 | 0.00 | 46 | 1015.0 |
| 20260505061003 | 56 | 298 | 0.0 | 3.0 | 0.00 | 0.00 | 0.00 | 46 | 1013.5 |
| 20260505061001 | 57 | 298 | 0.0 | 3.0 | 0.00 | 0.00 | 0.00 | 45 | 1015.1 |
| 20260505060504 | 58 | 298 | 0.0 | 3.0 | 0.00 | 0.00 | 0.00 | 45 | 1015.0 |
| 20260505060016 | 57 | 283 | 0.0 | 2.0 | 0.00 | 0.00 | 0.00 | 44 | 1013.5 |